Regional Weather Roundup
Issued by NWS Midland/Odessa, TX

Skip options and go directly to product.
Home | Oldest Version | Previous Version | Current Version | All | Text Only | Save Text | Print | Product List | Glossary Off

Skip product version selection by date and time.   

421
ASUS44 KMAF 010910
RWRMAF
MIDLAND AREA WEATHER ROUNDUP
NATIONAL WEATHER SERVICE MIDLAND TX
400 AM CDT WED APR 01 2015

...IN SOUTHWEST TEXAS AND SOUTHEAST NEW MEXICO...

CITY           SKY/WX    TMP DP  RH WIND       PRES   REMARKS
ALPINE         MOCLDY    55  44  66 W5        30.09S
ANDREWS        FAIR      61  43  53 SW10      29.91S
ARTESIA        CLEAR     63  43  48 SW13G21   29.88F
BIG SPRING     CLOUDY    66  50  56 S10       29.92F
CARLSBAD       PTCLDY    66  41  40 SW13      29.86F
DRYDEN           N/A     68  52  56 NW12G24   29.94F
FORT STOCKTON  MOCLDY    63  48  58 S13       29.94F
GUAD PASS      CLEAR     53  41  63 W16       30.02F
HOBBS          MOCLDY    57  41  54 W8        29.91F
MARFA          PTCLDY    46  45  93 S3        30.07F
MIDLAND AIRPK  MOCLDY    65  53  63 S10       29.91S
MIDLAND INTL   CLOUDY    64  55  72 S14       29.91S
ODESSA         MOCLDY    64  57  78 S15       29.91F
PECOS          MOCLDY    60  45  57 S9        29.90F
PRESIDIO       FAIR      58  53  84 NW7       29.98F
SEMINOLE       PTCLDY    55  42  61 SW9       29.92R
SNYDER         CLOUDY    64  51  63 S3        29.90R
WINK           PTCLDY    58  45  62 S10       29.89S
$$
...OTHER STATIONS IN TEXAS...

CITY           SKY/WX    TMP DP  RH WIND       PRES   REMARKS
ABILENE        CLOUDY    68  60  75 SW13      29.89R
AMARILLO       CLEAR     55  43  63 S13       29.88F
AUSTIN         CLOUDY    69  66  90 S9        29.92F
BROWNSVILLE    CLOUDY    73  71  93 S15       29.91F
CORPUS CHRISTI CLOUDY    70  68  93 S14       29.91F
DALLAS FTW     MOCLDY    67  61  81 S10       29.89F
DEL RIO        CLOUDY    65  63  93 W6        29.93R FOG
EL PASO        PTCLDY    61  42  49 SW13      29.98F
HOUSTON INT    CLOUDY    70  67  90 S7        29.96F
LUBBOCK        CLOUDY    59  44  57 SW9       29.88F
SAN ANGELO     CLOUDY    67  61  81 SW15      29.90F
SAN ANTONIO    CLOUDY    69  66  90 S8        29.93F
WACO           MOCLDY    67  64  90 S13       29.90F
WICHITA FALLS  NOT AVBL
$$
...OTHER LOCATIONS IN NEW MEXICO...

CITY           SKY/WX    TMP DP  RH WIND       PRES   REMARKS
ALAMAGORDO     CLEAR     57  39  51 S12       29.97F
ALBUQUERQUE    CLEAR     48  24  39 SE7       29.99R
CANNON AFB     NOT AVBL
CLOVIS         CLEAR     48  37  66 SW8       29.88F
HOLLOMAN AFB   CLEAR     61  41  48 S13       29.95F
ROSWELL        CLEAR     52  40  63 SE5       29.88S
RUIDOSO        CLEAR     48  32  53 SW10      30.07F
SANTA FE       PTCLDY    40  21  46 CALM      30.00F
TRUTH OR CONSE CLEAR     51  36  56 E3        29.99F
TUCUMCARI      CLEAR     54  36  50 W10       29.84F
$$

USA.gov is the U.S. government's official web portal to all federal, state and local government web resources and services.